Date String (YYYY-MM-DD hh:mm:ss) UTC,Instrument flags,Ambient pressure (hPa),Sample flow (lpm),Bypass flow (lpm),Sample temperature (°C),Ambient temperature (°C),ASC tube jacket temperature (°C),LED temperature (°C),Box temperature (°C),Sample RH (%),Span deviation,Mass concentration (μg/m³),Mass concentration (μg/m³),Mass concentration (μg/m³)
DateTimeUTC,F1_M11,P_M11,Q1_M11,Q2_M11,T1_M11,T2_M11,T3_M11,T4_M11,T5_M11,U1_M11,ZSPAN_M11,X2_M11,X0_M11,X1_M11
2023-05-10 06:00:00,,0829.0,5.00,0.00,29.7,28.0,00.0,38.1,31.4,31.4,-000.5,0005.74,0010.59,0005.15
2023-05-10 06:01:00,,0828.9,4.99,0.00,29.7,28.0,00.0,38.1,31.4,31.4,-000.1,0005.84,0010.85,0005.24
2023-05-10 06:02:00,,0828.9,4.99,0.00,29.7,28.1,00.0,38.1,31.4,31.3,-000.1,0005.96,0011.03,0005.35
2023-05-10 06:03:00,,0829.0,4.99,0.00,29.7,28.1,00.0,38.2,31.5,31.2,0000.1,0006.05,0010.58,0005.45
2023-05-10 06:04:00,,0829.0,5.00,0.00,29.7,28.2,00.0,38.2,31.4,30.6,0000.2,0006.16,0010.72,0005.55
2023-05-10 06:05:00,,0829.0,5.01,0.00,29.8,28.2,00.0,38.2,31.5,30.3,-000.2,0006.28,0011.01,0005.64
2023-05-10 06:06:00,,0829.0,5.00,0.00,29.8,28.2,00.0,38.2,31.5,30.3,0000.0,0006.42,0010.68,0005.72
2023-05-10 06:07:00,,0829.1,5.00,0.00,29.8,28.2,00.0,38.2,31.5,30.5,0000.3,0006.59,0010.88,0005.82
2023-05-10 06:08:00,,0829.1,5.01,0.00,29.8,28.2,00.0,38.2,31.5,30.8,0000.1,0006.68,0010.97,0005.90
2023-05-10 06:09:00,,0829.1,4.98,0.00,29.8,28.2,00.0,38.2,31.5,31.0,-000.0,0006.75,0010.94,0005.97
2023-05-10 06:10:00,,0829.2,5.01,0.00,29.8,28.3,00.0,38.2,31.5,31.1,-000.0,0006.82,0010.93,0006.02
2023-05-10 06:11:00,,0829.2,5.01,0.00,29.8,28.3,00.0,38.2,31.5,31.1,-000.3,0006.90,0011.05,0006.08
2023-05-10 06:12:00,,0829.2,5.00,0.00,29.8,28.3,00.0,38.2,31.5,31.1,-000.5,0006.97,0011.05,0006.14
2023-05-10 06:13:00,,0829.2,5.00,0.00,29.8,28.3,00.0,38.2,31.5,31.0,-000.4,0007.02,0011.02,0006.19
2023-05-10 06:14:00,,0829.2,5.01,0.00,29.8,28.4,00.0,38.2,31.6,31.1,-000.2,0007.08,0011.25,0006.23
2023-05-10 06:15:00,,0829.2,4.99,0.00,29.9,28.4,00.0,38.2,31.6,31.0,-000.1,0007.15,0011.88,0006.27
2023-05-10 06:16:00,,0829.2,5.00,0.00,29.9,28.4,00.0,38.2,31.6,30.6,0000.1,0007.12,0011.73,0006.25
2023-05-10 06:17:00,,0829.2,5.01,0.00,29.9,28.4,00.0,38.2,31.6,30.3,0000.1,0007.01,0011.53,0006.19
2023-05-10 06:18:00,,0829.1,5.00,0.00,29.9,28.4,00.0,38.3,31.6,29.8,0000.2,0006.84,0011.26,0006.09
2023-05-10 06:19:00,,0829.1,4.99,0.00,29.9,28.4,00.0,38.3,31.6,29.4,0000.4,0006.74,0011.19,0005.97
2023-05-10 06:20:00,,0829.1,5.00,0.00,29.9,28.4,00.0,38.3,31.6,28.9,0000.5,0006.59,0011.27,0005.83
2023-05-10 06:21:00,,0829.1,4.99,0.00,29.9,28.4,00.0,38.3,31.6,28.5,0000.3,0006.45,0011.32,0005.68
2023-05-10 06:22:00,,0829.1,5.01,0.00,29.9,28.4,00.0,38.3,31.7,28.1,0000.1,0006.27,0011.21,0005.54
2023-05-10 06:23:00,,0829.1,5.01,0.00,29.9,28.4,00.0,38.3,31.7,27.0,0000.2,0006.15,0011.07,0005.40
2023-05-10 06:24:00,,0829.1,5.01,0.00,29.9,28.4,00.0,38.3,31.7,25.9,-000.0,0006.05,0011.06,0005.29
2023-05-10 06:25:00,,0829.1,4.99,0.00,29.9,28.3,00.0,38.3,31.7,26.0,-000.5,0005.99,0011.00,0005.18
2023-05-10 06:26:00,,0829.1,5.00,0.00,29.9,28.3,00.0,38.3,31.6,26.3,-000.5,0005.89,0010.34,0005.08
2023-05-10 06:27:00,,0829.1,5.00,0.00,29.9,28.4,00.0,38.3,31.6,26.4,-000.1,0005.86,0010.50,0005.05
2023-05-10 06:28:00,,0829.1,5.00,0.00,29.9,28.4,00.0,38.3,31.6,26.6,-000.0,0005.85,0010.89,0005.03
2023-05-10 06:29:00,,0829.1,5.00,0.00,29.9,28.3,00.0,38.3,31.7,26.9,-000.2,0005.93,0011.06,0005.06
2023-05-10 06:30:00,,0829.1,5.00,0.00,29.9,28.3,00.0,38.3,31.7,27.0,-000.2,0006.02,0011.24,0005.13
2023-05-10 06:31:00,,0829.1,5.00,0.00,30.0,28.4,00.0,38.3,31.7,27.3,0000.6,0006.12,0011.27,0005.20
2023-05-10 06:32:00,,0829.1,4.99,0.00,30.0,28.4,00.0,38.4,31.7,27.2,0001.1,0006.19,0011.50,0005.29
2023-05-10 06:33:00,,0829.1,5.00,0.00,30.0,28.3,00.0,38.4,31.6,26.8,0001.3,0006.38,0011.67,0005.42
2023-05-10 06:34:00,,0829.3,5.01,0.00,29.9,28.3,00.0,38.4,31.6,26.3,0001.4,0006.56,0011.96,0005.56
2023-05-10 06:35:00,,0829.3,5.01,0.00,29.9,28.3,00.0,38.4,31.6,26.3,0001.7,0006.80,0012.28,0005.69
2023-05-10 06:36:00,,0829.4,4.99,0.00,29.9,28.3,00.0,38.4,31.6,26.4,0001.8,0006.98,0012.60,0005.83
2023-05-10 06:37:00,,0829.3,5.00,0.00,29.9,28.3,00.0,38.4,31.6,26.6,0001.9,0007.13,0012.78,0005.99
2023-05-10 06:38:00,,0829.3,5.01,0.00,29.9,28.3,00.0,38.4,31.6,26.8,0001.8,0007.33,0012.98,0006.11
2023-05-10 06:39:00,,0829.3,5.01,0.00,29.9,28.3,00.0,38.4,31.6,26.9,0001.8,0007.47,0012.85,0006.22
2023-05-10 06:40:00,,0829.4,5.00,0.00,29.9,28.3,00.0,38.4,31.6,26.7,0001.5,0007.58,0013.16,0006.32
2023-05-10 06:41:00,,0829.3,5.00,0.00,29.9,28.3,00.0,38.4,31.6,26.5,0001.0,0007.74,0013.48,0006.42
2023-05-10 06:42:00,,0829.4,5.00,0.00,29.9,28.3,00.0,38.4,31.6,26.7,0000.4,0007.94,0013.82,0006.54
2023-05-10 06:43:00,,0829.4,4.99,0.00,29.9,28.3,00.0,38.4,31.6,26.7,0000.2,0008.14,0013.69,0006.66
2023-05-10 06:44:00,,0829.3,5.00,0.00,29.9,28.3,00.0,38.4,31.6,26.6,0000.1,0008.30,0013.92,0006.75
2023-05-10 06:45:00,,0829.3,5.00,0.00,29.9,28.3,00.0,38.4,31.6,26.6,0000.0,0008.37,0014.01,0006.81
2023-05-10 06:46:00,,0829.2,5.01,0.00,29.9,28.3,00.0,38.4,31.6,26.4,-000.2,0008.37,0013.96,0006.85
2023-05-10 06:47:00,,0829.3,5.00,0.00,30.0,28.3,00.0,38.4,31.6,26.5,-000.2,0008.38,0013.86,0006.89
2023-05-10 06:48:00,,0829.4,5.00,0.00,30.0,28.3,00.0,38.4,31.6,26.5,-000.1,0008.51,0014.07,0006.95
2023-05-10 06:49:00,,0829.4,5.00,0.00,30.0,28.3,00.0,38.4,31.6,26.6,-000.7,0008.56,0014.15,0007.00
2023-05-10 06:50:00,,0829.3,5.01,0.00,30.0,28.4,00.0,38.4,31.6,26.7,-000.8,0008.66,0014.28,0007.07
2023-05-10 06:51:00,,0829.3,5.01,0.00,30.0,28.4,00.0,38.4,31.7,26.9,-000.5,0008.73,0015.64,0007.11
2023-05-10 06:52:00,,0829.3,5.00,0.00,30.0,28.4,00.0,38.4,31.7,26.9,-000.1,0008.75,0015.88,0007.16
2023-05-10 06:53:00,,0829.4,5.00,0.00,30.0,28.4,00.0,38.4,31.7,27.0,-000.1,0008.71,0015.66,0007.20
2023-05-10 06:54:00,,0829.4,4.99,0.00,30.0,28.4,00.0,38.4,31.7,27.1,-000.0,0008.73,0015.64,0007.23
2023-05-10 06:55:00,,0829.4,5.00,0.00,30.0,28.5,00.0,38.4,31.7,27.1,0000.2,0008.77,0016.36,0007.27
2023-05-10 06:56:00,,0829.4,5.00,0.00,30.0,28.5,00.0,38.4,31.7,27.2,0000.3,0008.85,0016.57,0007.33
2023-05-10 06:57:00,,0829.4,5.00,0.00,30.0,28.5,00.0,38.4,31.7,27.2,0000.6,0008.92,0016.75,0007.38
2023-05-10 06:58:00,,0829.5,4.98,0.00,30.0,28.5,00.0,38.4,31.7,27.3,0000.9,0009.03,0017.18,0007.45
2023-05-10 06:59:00,,0829.4,5.01,0.00,30.0,28.5,00.0,38.4,31.7,27.3,0001.0,0009.05,0017.28,0007.48
